Weather History for Larnaca, Cyprus

Change the Weather History Date:

Sunday, December 30, 2012

  Actual Average Record
Temperature  
Mean Temperature 56 °F -  
Max Temperature 65 °F 61 °F 69 °F (2002)
Min Temperature 47 °F 44 °F 41 °F (2007)
Degree Days  
Heating Degree Days 9    
Growing Degree Days 6 (Base 50)    
Moisture  
Dew Point 46 °F    
Average Humidity 71    
Maximum Humidity 93    
Minimum Humidity 42    
Precipitation  
Precipitation 0.00 in 0.08 in - ()
Sea Level Pressure  
Sea Level Pressure 30.12 in    
Wind  
Wind Speed 6 mph ()    
Max Wind Speed 8 mph    
Max Gust Speed -    
Visibility 6.8 miles    
Events      
Averages and records for this station are not official NWS values.
T = Trace of Precipitation, MM = Missing Value Source: Averaged Metar Reports

Daily Weather History Graph

Daily Weather History Graph

Search for Another Location

Airport:

Trip Planner

Search our weather history database for the weather conditions in past years. The results will help you decide how hot, cold, wet, or windy it might be!

Date:

Astronomy

Dec. 30, 2012 Rise Set
Actual Time 6:52 AM EET 4:43 PM EET
Civil Twilight 6:24 AM EET 5:11 PM EET
Nautical Twilight 5:53 AM EET 5:43 PM EET
Astronomical Twilight 5:22 AM EET 6:14 PM EET
Moon 6:49 PM EET (12/30) 7:54 AM EET (12/30)
Length of Visible Light 10h 47m
Length of Day
9h 50m
Waning Gibbous, 96% of the Moon is Illuminated
Dec 30
Waning Gibbous
Jan 5
Last Quarter
Jan 11
New
Jan 19
First Quarter
Jan 27
Full

Hourly Weather History & Observations

Time (EET) Temp. Dew Point Humidity Pressure Visibility Wind Dir Wind Speed Gust Speed Precip Events Conditions
12:00 AM 50.0 °F 44.6 °F 82% 30.09 in - NW 6.9 mph - N/A   Clear
12:30 AM 51.8 °F 44.6 °F 76% 30.09 in - NW 5.8 mph - N/A   Clear
1:00 AM 50.0 °F 44.6 °F 82% 30.09 in - NNW 5.8 mph - N/A   Clear
1:30 AM 51.8 °F 44.6 °F 76% 30.09 in - NNW 6.9 mph - N/A   Clear
2:00 AM 51 °F 44 °F 70% 30.10 in 11 mi NNW 6.9 mph - -  
2:00 AM 51.8 °F 44.6 °F 76% 30.09 in - NNW 6.9 mph - N/A   Clear
2:30 AM 51.8 °F 44.6 °F 76% 30.09 in - NW 5.8 mph - N/A   Clear
3:00 AM 51.8 °F 44.6 °F 76% 30.09 in - NW 6.9 mph - N/A   Clear
3:30 AM 50.0 °F 44.6 °F 82% 30.09 in - NNW 6.9 mph - N/A   Clear
4:00 AM 50.0 °F 44.6 °F 82% 30.09 in - NW 6.9 mph - N/A   Clear
4:30 AM 50.0 °F 44.6 °F 82% 30.09 in - NNW 8.1 mph - N/A   Clear
5:00 AM 51.8 °F 44.6 °F 76% 30.09 in - NNW 5.8 mph - N/A   Clear
5:30 AM 51.8 °F 44.6 °F 76% 30.09 in - North 5.8 mph - N/A   Clear
6:00 AM 48.2 °F 42.8 °F 82% 30.12 in - NW 5.8 mph - N/A   Clear
6:30 AM 50.0 °F 44.6 °F 82% 30.12 in 6.2 mi NNW 6.9 mph - N/A   Partly Cloudy
7:00 AM 50.0 °F 42.8 °F 76% 30.12 in 6.2 mi NNW 5.8 mph - N/A   Partly Cloudy
7:30 AM 51.8 °F 44.6 °F 76% 30.12 in 6.2 mi NNW 6.9 mph - N/A   Partly Cloudy
8:00 AM 52 °F 46 °F 73% 30.15 in 9 mi NW 4.6 mph - -   Scattered Clouds
8:00 AM 51.8 °F 46.4 °F 82% 30.12 in 6.2 mi NW 4.6 mph - N/A   Partly Cloudy
8:30 AM 55.4 °F 46.4 °F 72% 30.12 in 6.2 mi NNW 4.6 mph - N/A   Partly Cloudy
9:00 AM 59.0 °F 48.2 °F 67% 30.15 in 6.2 mi NNW 4.6 mph - N/A   Partly Cloudy
9:30 AM 60.8 °F 48.2 °F 63% 30.15 in 6.2 mi NNW 4.6 mph - N/A   Partly Cloudy
10:00 AM 62.6 °F 48.2 °F 59% 30.15 in 6.2 mi NNE 6.9 mph - N/A   Partly Cloudy
10:30 AM 62.6 °F 48.2 °F 59% 30.15 in 6.2 mi NNE 8.1 mph - N/A   Partly Cloudy
11:00 AM 64.4 °F 48.2 °F 56% 30.15 in 6.2 mi NE 8.1 mph - N/A   Partly Cloudy
11:30 AM 64.4 °F 48.2 °F 56% 30.12 in 6.2 mi ENE 8.1 mph - N/A   Partly Cloudy
12:00 PM 64.4 °F 48.2 °F 56% 30.12 in 6.2 mi ENE 6.9 mph - N/A   Partly Cloudy
12:30 PM 64.4 °F 48.2 °F 56% 30.12 in 6.2 mi ENE 5.8 mph - N/A   Partly Cloudy
1:00 PM 66.2 °F 48.2 °F 52% 30.12 in 6.2 mi East 8.1 mph - N/A   Partly Cloudy
1:30 PM 66.2 °F 48.2 °F 52% 30.09 in 6.2 mi East 6.9 mph - N/A   Partly Cloudy
2:00 PM 65 °F 47 °F 42% 30.12 in 12 mi East 8.1 mph - -   Scattered Clouds
2:00 PM 66.2 °F 48.2 °F 52% 30.09 in 6.2 mi East 8.1 mph - N/A   Partly Cloudy
2:30 PM 64.4 °F 46.4 °F 52% 30.09 in 6.2 mi ESE 5.8 mph - N/A   Partly Cloudy
3:00 PM 64.4 °F 48.2 °F 56% 30.12 in 6.2 mi East 6.9 mph - N/A   Partly Cloudy
3:30 PM 64.4 °F 48.2 °F 56% 30.12 in 6.2 mi East 6.9 mph - N/A   Partly Cloudy
4:00 PM 64.4 °F 48.2 °F 56% 30.12 in 6.2 mi East 6.9 mph - N/A   Partly Cloudy
4:30 PM 62.6 °F 48.2 °F 59% 30.09 in 6.2 mi East 8.1 mph - N/A   Partly Cloudy
5:00 PM 62.6 °F 48.2 °F 59% 30.12 in 6.2 mi ENE 6.9 mph - N/A   Partly Cloudy
5:30 PM 60.8 °F 46.4 °F 59% 30.12 in - ENE 5.8 mph - N/A   Clear
6:00 PM 57.2 °F 46.4 °F 67% 30.12 in - ENE 8.1 mph - N/A   Clear
6:30 PM 53.6 °F 48.2 °F 82% 30.12 in - ENE 6.9 mph - N/A   Clear
7:00 PM 51.8 °F 48.2 °F 88% 30.15 in - NNW 3.5 mph - N/A   Clear
7:30 PM 51.8 °F 46.4 °F 82% 30.15 in - NW 4.6 mph - N/A   Clear
8:00 PM 52 °F 47 °F 78% 30.17 in 9 mi NW 4.6 mph - -  
8:00 PM 51.8 °F 46.4 °F 82% 30.15 in - NW 4.6 mph - N/A   Clear
8:30 PM 51.8 °F 46.4 °F 82% 30.15 in - NW 4.6 mph - N/A   Clear
9:00 PM 50.0 °F 46.4 °F 87% 30.15 in - NW 5.8 mph - N/A   Clear
9:30 PM 50.0 °F 46.4 °F 87% 30.15 in - NW 5.8 mph - N/A   Clear
10:00 PM 50.0 °F 46.4 °F 87% 30.15 in - NW 5.8 mph - N/A   Clear
10:30 PM 50.0 °F 46.4 °F 87% 30.15 in - NW 5.8 mph - N/A   Clear
11:00 PM 48.2 °F 44.6 °F 87% 30.15 in - NW 6.9 mph - N/A   Clear
11:30 PM 48.2 °F 46.4 °F 93% 30.15 in - WNW 6.9 mph - N/A   Clear